This is the latest recevied weather packets stored in our database for station/object W1RCY. If no packets are shown the sender has not sent any weather packets the latest 10 day(s).
| Time | Temp. | Humidity | Pressure | Rain* | Wind** | Luminosity | Snow |
|---|---|---|---|---|---|---|---|
| 1777858431 | 6.11° C | 62% | 1006.9 hPa | 0 mm | - | 0 W/m² | - |
| 1777858128 | 6.11° C | 62% | 1006.8 hPa | 0 mm | - | 0 W/m² | - |
| 1777857825 | 6.11° C | 62% | 1006.9 hPa | 0 mm | - | 0 W/m² | - |
| 1777857523 | 6.11° C | 63% | 1006.6 hPa | 0 mm | - | 0 W/m² | - |
| 1777857219 | 5.56° C | 64% | 1006.6 hPa | 0 mm | - | 0 W/m² | - |
| 1777856915 | 5.56° C | 64% | 1006.6 hPa | 0 mm | - | 0 W/m² | - |
| 1777856611 | 6.11° C | 64% | 1006.5 hPa | 0 mm | - | 0 W/m² | - |
| 1777856308 | 6.11° C | 63% | 1006.6 hPa | 0 mm | - | 0 W/m² | - |
| 1777856005 | 6.11° C | 63% | 1006.5 hPa | 0 mm | - | 0 W/m² | - |
| 1777855702 | 6.11° C | 63% | 1006.5 hPa | 0 mm | - | 0 W/m² | - |
| 1777855400 | 6.11° C | 62% | 1006.3 hPa | 0 mm | - | 0 W/m² | - |
| 1777855096 | 6.67° C | 62% | 1006.2 hPa | 0 mm | - | 0 W/m² | - |
| 1777854793 | 6.67° C | 61% | 1006 hPa | 0 mm | - | 0 W/m² | - |
| 1777854489 | 6.67° C | 61% | 1006.1 hPa | 0 mm | - | 0 W/m² | - |
| 1777854187 | 6.67° C | 61% | 1005.9 hPa | 0 mm | - | 0 W/m² | - |
| 1777853884 | 6.67° C | 60% | 1006 hPa | 0 mm | - | 0 W/m² | - |
| 1777853581 | 7.22° C | 59% | 1005.8 hPa | 0 mm | - | 0 W/m² | - |
| 1777853278 | 7.22° C | 59% | 1005.8 hPa | 0 mm | - | 0 W/m² | - |
| 1777852975 | 7.78° C | 58% | 1005.6 hPa | 0 mm | - | 0 W/m² | - |
| 1777852673 | 7.78° C | 56% | 1005.6 hPa | 0 mm | - | 0 W/m² | - |
| 1777852370 | 7.22° C | 58% | 1005.6 hPa | 0 mm | - | 0 W/m² | - |
| 1777852068 | 7.22° C | 59% | 1005.5 hPa | 0 mm | - | 1 W/m² | - |
| 1777851765 | 7.78° C | 58% | 1005.5 hPa | 0 mm | - | 4 W/m² | - |
| 1777851462 | 7.78° C | 58% | 1005.3 hPa | 0 mm | - | 6 W/m² | - |
| 1777851158 | 7.78° C | 57% | 1005.4 hPa | 0 mm | - | 8 W/m² | - |
* Rain latest hour (hover to see other rain measurements)
** Current wind speed in m/s (hover to see current wind gust speed)